Year,Month,Day,Hour,Minute,Value (Times are PST for temperature in C)
2008,05,22,00,00,7.80
2008,05,22,00,01,7.80
2008,05,22,00,02,7.80
2008,05,22,00,03,7.80
2008,05,22,00,04,7.80
2008,05,22,00,05,7.80
2008,05,22,00,06,7.80
2008,05,22,00,07,7.80
2008,05,22,00,08,7.80
2008,05,22,00,09,7.70
2008,05,22,00,10,7.70
2008,05,22,00,11,7.70
2008,05,22,00,12,7.70
2008,05,22,00,13,7.70
2008,05,22,00,14,7.70
2008,05,22,00,15,7.70
2008,05,22,00,16,7.70
2008,05,22,00,17,7.70
2008,05,22,00,18,7.70
2008,05,22,00,19,7.70
2008,05,22,00,20,7.70
2008,05,22,00,21,7.70
2008,05,22,00,22,7.70
2008,05,22,00,23,7.70
2008,05,22,00,24,7.70
2008,05,22,00,25,7.70
2008,05,22,00,26,7.70
2008,05,22,00,27,7.70
2008,05,22,00,28,7.70
2008,05,22,00,29,7.70
2008,05,22,00,30,7.70
2008,05,22,00,31,7.70
2008,05,22,00,32,7.70
2008,05,22,00,33,7.70
2008,05,22,00,34,7.70
2008,05,22,00,35,7.70
2008,05,22,00,36,7.70
2008,05,22,00,37,7.70
2008,05,22,00,38,7.70
2008,05,22,00,39,7.70
2008,05,22,00,40,7.70
2008,05,22,00,41,7.70
2008,05,22,00,42,7.70
2008,05,22,00,43,7.70
2008,05,22,00,44,7.70
2008,05,22,00,45,7.70
2008,05,22,00,46,7.70
2008,05,22,00,47,7.70
2008,05,22,00,48,7.70
2008,05,22,00,49,7.70
2008,05,22,00,50,7.70
2008,05,22,00,51,7.70
2008,05,22,00,52,7.70
2008,05,22,00,53,7.70
2008,05,22,00,54,7.70
2008,05,22,00,55,7.70
2008,05,22,00,56,7.70
2008,05,22,00,57,7.70
2008,05,22,00,58,7.70
2008,05,22,00,59,7.70
2008,05,22,01,00,7.70
2008,05,22,01,01,7.70
2008,05,22,01,02,7.70
2008,05,22,01,03,7.70
2008,05,22,01,04,7.70
2008,05,22,01,05,7.70
2008,05,22,01,06,7.70
2008,05,22,01,07,7.80
2008,05,22,01,08,7.80
2008,05,22,01,09,7.80
2008,05,22,01,10,7.80
2008,05,22,01,11,7.80
2008,05,22,01,12,7.80
2008,05,22,01,13,7.80
2008,05,22,01,14,7.80
2008,05,22,01,15,7.80
2008,05,22,01,16,7.80
2008,05,22,01,17,7.90
2008,05,22,01,18,7.90
2008,05,22,01,19,7.90
2008,05,22,01,20,7.90
2008,05,22,01,21,7.90
2008,05,22,01,22,7.90
2008,05,22,01,23,7.90
2008,05,22,01,24,7.90
2008,05,22,01,25,7.90
2008,05,22,01,26,7.90
2008,05,22,01,27,7.90
2008,05,22,01,28,7.90
2008,05,22,01,29,7.90
2008,05,22,01,30,7.90
2008,05,22,01,31,7.90
2008,05,22,01,32,7.90
2008,05,22,01,33,7.90
2008,05,22,01,34,7.90
2008,05,22,01,35,7.90
2008,05,22,01,36,7.90
2008,05,22,01,37,7.90
2008,05,22,01,38,7.90
2008,05,22,01,39,7.90
2008,05,22,01,40,7.90
2008,05,22,01,41,7.90
2008,05,22,01,42,7.90
2008,05,22,01,43,7.90
2008,05,22,01,44,7.90
2008,05,22,01,45,7.90
2008,05,22,01,46,7.90
2008,05,22,01,47,7.90
2008,05,22,01,48,7.90
2008,05,22,01,49,7.90
2008,05,22,01,50,7.90
2008,05,22,01,51,7.90
2008,05,22,01,52,7.90
2008,05,22,01,53,7.90
2008,05,22,01,54,7.90
2008,05,22,01,55,7.90
2008,05,22,01,56,7.90
2008,05,22,01,57,7.90
2008,05,22,01,58,7.90
2008,05,22,01,59,7.90
2008,05,22,02,00,7.90
2008,05,22,02,01,7.90
2008,05,22,02,02,7.90
2008,05,22,02,03,7.90
2008,05,22,02,04,7.90
2008,05,22,02,05,7.90
2008,05,22,02,06,7.90
2008,05,22,02,07,7.90
2008,05,22,02,08,7.90
2008,05,22,02,09,7.90
2008,05,22,02,10,7.90
2008,05,22,02,11,7.90
2008,05,22,02,12,7.90
2008,05,22,02,13,7.90
2008,05,22,02,14,7.90
2008,05,22,02,15,7.90
2008,05,22,02,16,7.90
2008,05,22,02,17,7.90
2008,05,22,02,18,7.90
2008,05,22,02,19,7.90
2008,05,22,02,20,7.90
2008,05,22,02,21,7.90
2008,05,22,02,22,7.90
2008,05,22,02,23,7.90
2008,05,22,02,24,7.90
2008,05,22,02,25,7.90
2008,05,22,02,26,7.90
2008,05,22,02,27,7.90
2008,05,22,02,28,7.90
2008,05,22,02,29,7.90
2008,05,22,02,30,7.90
2008,05,22,02,31,7.90
2008,05,22,02,32,7.90
2008,05,22,02,33,7.90
2008,05,22,02,34,7.90
2008,05,22,02,35,7.90
2008,05,22,02,36,7.90
2008,05,22,02,37,7.90
2008,05,22,02,38,7.90
2008,05,22,02,39,7.90
2008,05,22,02,40,7.90
2008,05,22,02,41,7.90
2008,05,22,02,42,7.90
2008,05,22,02,43,7.90
2008,05,22,02,44,7.90
2008,05,22,02,45,7.90
2008,05,22,02,46,7.90
2008,05,22,02,47,7.90
2008,05,22,02,48,7.90
2008,05,22,02,49,7.90
2008,05,22,02,50,7.90
2008,05,22,02,51,7.90
2008,05,22,02,52,7.80
2008,05,22,02,53,7.90
2008,05,22,02,54,7.80
2008,05,22,02,55,7.80
2008,05,22,02,56,7.80
2008,05,22,02,57,7.80
2008,05,22,02,58,7.80
2008,05,22,02,59,7.80
2008,05,22,03,00,7.80
2008,05,22,03,01,7.80
2008,05,22,03,02,7.80
2008,05,22,03,03,7.80
2008,05,22,03,04,7.80
2008,05,22,03,05,7.80
2008,05,22,03,06,7.80
2008,05,22,03,07,7.80
2008,05,22,03,08,7.80
2008,05,22,03,09,7.80
2008,05,22,03,10,7.80
2008,05,22,03,11,7.80
2008,05,22,03,12,7.80
2008,05,22,03,13,7.80
2008,05,22,03,14,7.80
2008,05,22,03,15,7.80
2008,05,22,03,16,7.80
2008,05,22,03,17,7.80
2008,05,22,03,18,7.80
2008,05,22,03,19,7.80
2008,05,22,03,20,7.80
2008,05,22,03,21,7.80
2008,05,22,03,22,7.80
2008,05,22,03,23,7.80
2008,05,22,03,24,7.80
2008,05,22,03,25,7.90
2008,05,22,03,26,7.90
2008,05,22,03,27,7.90
2008,05,22,03,28,7.90
2008,05,22,03,29,7.90
2008,05,22,03,30,7.90
2008,05,22,03,31,7.90
2008,05,22,03,32,7.90
2008,05,22,03,33,7.90
2008,05,22,03,34,7.90
2008,05,22,03,35,7.90
2008,05,22,03,36,7.90
2008,05,22,03,37,7.90
2008,05,22,03,38,7.90
2008,05,22,03,39,7.90
2008,05,22,03,40,7.90
2008,05,22,03,41,7.90
2008,05,22,03,42,7.90
2008,05,22,03,43,7.90
2008,05,22,03,44,7.90
2008,05,22,03,45,7.90
2008,05,22,03,46,7.90
2008,05,22,03,47,7.90
2008,05,22,03,48,7.90
2008,05,22,03,49,7.90
2008,05,22,03,50,7.90
2008,05,22,03,51,7.90
2008,05,22,03,52,7.90
2008,05,22,03,53,7.90
2008,05,22,03,54,7.90
2008,05,22,03,55,8.00
2008,05,22,03,56,8.00
2008,05,22,03,57,8.00
2008,05,22,03,58,8.00
2008,05,22,03,59,8.00
2008,05,22,04,00,8.00
2008,05,22,04,01,8.00
2008,05,22,04,02,8.00
2008,05,22,04,03,8.00
2008,05,22,04,04,8.00
2008,05,22,04,05,8.00
2008,05,22,04,06,8.00
2008,05,22,04,07,8.00
2008,05,22,04,08,8.00
2008,05,22,04,09,8.00
2008,05,22,04,10,8.00
2008,05,22,04,11,8.10
2008,05,22,04,12,8.10
2008,05,22,04,13,8.10
2008,05,22,04,14,8.10
2008,05,22,04,15,8.00
2008,05,22,04,16,8.10
2008,05,22,04,17,8.10
2008,05,22,04,18,8.10
2008,05,22,04,19,8.10
2008,05,22,04,20,8.10
2008,05,22,04,21,8.10
2008,05,22,04,22,8.10
2008,05,22,04,23,8.10
2008,05,22,04,24,8.10
2008,05,22,04,25,8.10
2008,05,22,04,26,8.10
2008,05,22,04,27,8.10
2008,05,22,04,28,8.10
2008,05,22,04,29,8.10
2008,05,22,04,30,8.10
2008,05,22,04,31,8.10
2008,05,22,04,32,8.10
2008,05,22,04,33,8.10
2008,05,22,04,34,8.10
2008,05,22,04,35,8.10
2008,05,22,04,36,8.10
2008,05,22,04,37,8.10
2008,05,22,04,38,8.10
2008,05,22,04,39,8.10
2008,05,22,04,40,8.10
2008,05,22,04,41,8.10
2008,05,22,04,42,8.00
2008,05,22,04,43,8.00
2008,05,22,04,44,8.00
2008,05,22,04,45,8.00
2008,05,22,04,46,8.00
2008,05,22,04,47,8.00
2008,05,22,04,48,8.00
2008,05,22,04,49,8.00
2008,05,22,04,50,8.00
2008,05,22,04,51,8.00
2008,05,22,04,52,8.00
2008,05,22,04,53,8.00
2008,05,22,04,54,8.00
2008,05,22,04,55,8.00
2008,05,22,04,56,8.00
2008,05,22,04,57,8.00
2008,05,22,04,58,8.00
2008,05,22,04,59,8.00
2008,05,22,05,00,8.00
2008,05,22,05,01,8.00
2008,05,22,05,02,8.00
2008,05,22,05,03,8.00
2008,05,22,05,04,8.00
2008,05,22,05,05,8.00
2008,05,22,05,06,8.00
2008,05,22,05,07,8.00
2008,05,22,05,08,8.00
2008,05,22,05,09,8.00
2008,05,22,05,10,8.00
2008,05,22,05,11,8.00
2008,05,22,05,12,8.00
2008,05,22,05,13,8.00
2008,05,22,05,14,8.00
2008,05,22,05,15,8.00
2008,05,22,05,16,8.00
2008,05,22,05,17,8.00
2008,05,22,05,18,8.00
2008,05,22,05,19,8.00
2008,05,22,05,20,8.00
2008,05,22,05,21,8.00
2008,05,22,05,22,8.00
2008,05,22,05,23,8.00
2008,05,22,05,24,8.00
2008,05,22,05,25,8.00
2008,05,22,05,26,8.00
2008,05,22,05,27,8.00
2008,05,22,05,28,8.00
2008,05,22,05,29,8.00
2008,05,22,05,30,8.00
2008,05,22,05,31,8.00
2008,05,22,05,32,8.00
2008,05,22,05,33,8.00
2008,05,22,05,34,8.00
2008,05,22,05,35,8.10
2008,05,22,05,36,8.10
2008,05,22,05,37,8.10
2008,05,22,05,38,8.10
2008,05,22,05,39,8.00
2008,05,22,05,40,8.00
2008,05,22,05,41,8.00
2008,05,22,05,42,8.00
2008,05,22,05,43,8.00
2008,05,22,05,44,8.00
2008,05,22,05,45,8.00
2008,05,22,05,46,8.00
2008,05,22,05,47,8.00
2008,05,22,05,48,8.10
2008,05,22,05,49,8.10
2008,05,22,05,50,8.10
2008,05,22,05,51,8.10
2008,05,22,05,52,8.10
2008,05,22,05,53,8.10
2008,05,22,05,54,8.10
2008,05,22,05,55,8.10
2008,05,22,05,56,8.10
2008,05,22,05,57,8.10
2008,05,22,05,58,8.10
2008,05,22,05,59,8.10
2008,05,22,06,00,8.10
2008,05,22,06,01,8.10
2008,05,22,06,02,8.10
2008,05,22,06,03,8.10
2008,05,22,06,04,8.10
2008,05,22,06,05,8.10
2008,05,22,06,06,8.10
2008,05,22,06,07,8.10
2008,05,22,06,08,8.10
2008,05,22,06,09,8.10
2008,05,22,06,10,8.10
2008,05,22,06,11,8.10
2008,05,22,06,12,8.10
2008,05,22,06,13,8.10
2008,05,22,06,14,8.10
2008,05,22,06,15,8.20
2008,05,22,06,16,8.10
2008,05,22,06,17,8.20
2008,05,22,06,18,8.20
2008,05,22,06,19,8.20
2008,05,22,06,20,8.20
2008,05,22,06,21,8.20
2008,05,22,06,22,8.20
2008,05,22,06,23,8.20
2008,05,22,06,24,8.20
2008,05,22,06,25,8.20
2008,05,22,06,26,8.20
2008,05,22,06,27,8.20
2008,05,22,06,28,8.20
2008,05,22,06,29,8.20
2008,05,22,06,30,8.20
2008,05,22,06,31,8.20
2008,05,22,06,32,8.20
2008,05,22,06,33,8.20
2008,05,22,06,34,8.20
2008,05,22,06,35,8.30
2008,05,22,06,36,8.30
2008,05,22,06,37,8.30
2008,05,22,06,38,8.30
2008,05,22,06,39,8.30
2008,05,22,06,40,8.30
2008,05,22,06,41,8.30
2008,05,22,06,42,8.30
2008,05,22,06,43,8.30
2008,05,22,06,44,8.40
2008,05,22,06,45,8.40
2008,05,22,06,46,8.40
2008,05,22,06,47,8.40
2008,05,22,06,48,8.40
2008,05,22,06,49,8.40
2008,05,22,06,50,8.40
2008,05,22,06,51,8.40
2008,05,22,06,52,8.50
2008,05,22,06,53,8.50
2008,05,22,06,54,8.50
2008,05,22,06,55,8.50
2008,05,22,06,56,8.60
2008,05,22,06,57,8.60
2008,05,22,06,58,8.60
2008,05,22,06,59,8.60
2008,05,22,07,00,8.60
2008,05,22,07,01,8.60
2008,05,22,07,02,8.60
2008,05,22,07,03,8.60
2008,05,22,07,04,8.60
2008,05,22,07,05,8.60
2008,05,22,07,06,8.60
2008,05,22,07,07,8.60
2008,05,22,07,08,8.60
2008,05,22,07,09,8.60
2008,05,22,07,10,8.60
2008,05,22,07,11,8.60
2008,05,22,07,12,8.60
2008,05,22,07,13,8.60
2008,05,22,07,14,8.60
2008,05,22,07,15,8.60
2008,05,22,07,16,8.60
2008,05,22,07,17,8.70
2008,05,22,07,18,8.70
2008,05,22,07,19,8.70
2008,05,22,07,20,8.70
2008,05,22,07,21,8.70
2008,05,22,07,22,8.70
2008,05,22,07,23,8.70
2008,05,22,07,24,8.70
2008,05,22,07,25,8.70
2008,05,22,07,26,8.80
2008,05,22,07,27,8.80
2008,05,22,07,28,8.80
2008,05,22,07,29,8.80
2008,05,22,07,30,8.80
2008,05,22,07,31,8.80
2008,05,22,07,32,8.80
2008,05,22,07,33,8.80
2008,05,22,07,34,8.80
2008,05,22,07,35,8.90
2008,05,22,07,36,8.90
2008,05,22,07,37,8.90
2008,05,22,07,38,8.90
2008,05,22,07,39,8.80
2008,05,22,07,40,8.90
2008,05,22,07,41,8.90
2008,05,22,07,42,8.90
2008,05,22,07,43,8.90
2008,05,22,07,44,8.90
2008,05,22,07,45,8.90
2008,05,22,07,46,8.90
2008,05,22,07,47,8.90
2008,05,22,07,48,8.90
2008,05,22,07,49,8.90
2008,05,22,07,50,8.90
2008,05,22,07,51,8.90
2008,05,22,07,52,8.90
2008,05,22,07,53,8.90
2008,05,22,07,54,8.90
2008,05,22,07,55,8.90
2008,05,22,07,56,8.90
2008,05,22,07,57,8.90
2008,05,22,07,58,8.90
2008,05,22,07,59,8.90
2008,05,22,08,00,8.90
2008,05,22,08,01,8.90
2008,05,22,08,02,8.90
2008,05,22,08,03,8.90
2008,05,22,08,04,8.90
2008,05,22,08,05,8.90
2008,05,22,08,06,8.90
2008,05,22,08,07,8.90
2008,05,22,08,08,9.00
2008,05,22,08,09,9.00
2008,05,22,08,10,9.00
2008,05,22,08,11,9.00
2008,05,22,08,12,9.10
2008,05,22,08,13,9.10
2008,05,22,08,14,9.10
2008,05,22,08,15,9.10
2008,05,22,08,16,9.10
2008,05,22,08,17,9.10
2008,05,22,08,18,9.20
2008,05,22,08,19,9.20
2008,05,22,08,20,9.20
2008,05,22,08,21,9.20
2008,05,22,08,22,9.30
2008,05,22,08,23,9.30
2008,05,22,08,24,9.30
2008,05,22,08,25,9.40
2008,05,22,08,26,9.40
2008,05,22,08,27,9.40
2008,05,22,08,28,9.50
2008,05,22,08,29,9.50
2008,05,22,08,30,9.60
2008,05,22,08,31,9.60
2008,05,22,08,32,9.60
2008,05,22,08,33,9.60
2008,05,22,08,34,9.60
2008,05,22,08,35,9.70
2008,05,22,08,36,9.70
2008,05,22,08,37,9.70
2008,05,22,08,38,9.70
2008,05,22,08,39,9.80
2008,05,22,08,40,9.80
2008,05,22,08,41,9.80
2008,05,22,08,42,9.80
2008,05,22,08,43,9.80
2008,05,22,08,44,9.80
2008,05,22,08,45,9.80
2008,05,22,08,46,9.90
2008,05,22,08,47,9.90
2008,05,22,08,48,9.90
2008,05,22,08,49,9.90
2008,05,22,08,50,9.90
2008,05,22,08,51,9.90
2008,05,22,08,52,9.90
2008,05,22,08,53,9.90
2008,05,22,08,54,9.90
2008,05,22,08,55,9.90
2008,05,22,08,56,10.00
2008,05,22,08,57,10.00
2008,05,22,08,58,10.00
2008,05,22,08,59,10.00
2008,05,22,09,00,10.10
2008,05,22,09,01,10.10
2008,05,22,09,02,10.10
2008,05,22,09,03,10.10
2008,05,22,09,04,10.20
2008,05,22,09,05,10.20
2008,05,22,09,06,10.20
2008,05,22,09,07,10.30
2008,05,22,09,08,10.30
2008,05,22,09,09,10.30
2008,05,22,09,10,10.30
2008,05,22,09,11,10.30
2008,05,22,09,12,10.30
2008,05,22,09,13,10.30
2008,05,22,09,14,10.30
2008,05,22,09,15,10.30
2008,05,22,09,16,10.40
2008,05,22,09,17,10.40
2008,05,22,09,18,10.40
2008,05,22,09,19,10.40
2008,05,22,09,20,10.40
2008,05,22,09,21,10.40
2008,05,22,09,22,10.50
2008,05,22,09,23,10.50
2008,05,22,09,24,10.40
2008,05,22,09,25,10.40
2008,05,22,09,26,10.40
2008,05,22,09,27,10.40
2008,05,22,09,28,10.40
2008,05,22,09,29,10.30
2008,05,22,09,30,10.30
2008,05,22,09,31,10.30
2008,05,22,09,32,10.30
2008,05,22,09,33,10.30
2008,05,22,09,34,10.40
2008,05,22,09,35,10.40
2008,05,22,09,36,10.40
2008,05,22,09,37,10.50
2008,05,22,09,38,10.50
2008,05,22,09,39,10.50
2008,05,22,09,40,10.60
2008,05,22,09,41,10.60
2008,05,22,09,42,10.60
2008,05,22,09,43,10.60
2008,05,22,09,44,10.60
2008,05,22,09,45,10.60
2008,05,22,09,46,10.60
2008,05,22,09,47,10.60
2008,05,22,09,48,10.70
2008,05,22,09,49,10.60
2008,05,22,09,50,10.60
2008,05,22,09,51,10.70
2008,05,22,09,52,10.70
2008,05,22,09,53,10.70
2008,05,22,09,54,10.70
2008,05,22,09,55,10.80
2008,05,22,09,56,10.80
2008,05,22,09,57,10.90
2008,05,22,09,58,10.90
2008,05,22,09,59,11.00
2008,05,22,10,00,11.00
2008,05,22,10,01,11.10
2008,05,22,10,02,11.10
2008,05,22,10,03,11.10
2008,05,22,10,04,11.10
2008,05,22,10,05,11.10
2008,05,22,10,06,11.10
2008,05,22,10,07,11.10
2008,05,22,10,08,11.10
2008,05,22,10,09,11.10
2008,05,22,10,10,11.10
2008,05,22,10,11,11.10
2008,05,22,10,12,11.10
2008,05,22,10,13,11.10
2008,05,22,10,14,11.10
2008,05,22,10,15,11.10
2008,05,22,10,16,11.10
2008,05,22,10,17,11.10
2008,05,22,10,18,11.10
2008,05,22,10,19,11.10
2008,05,22,10,20,11.10
2008,05,22,10,21,11.10
2008,05,22,10,22,11.10
2008,05,22,10,23,11.20
2008,05,22,10,24,11.20
2008,05,22,10,25,11.20
2008,05,22,10,26,11.20
2008,05,22,10,27,11.30
2008,05,22,10,28,11.30
2008,05,22,10,29,11.40
2008,05,22,10,30,11.40
2008,05,22,10,31,11.40
2008,05,22,10,32,11.40
2008,05,22,10,33,11.40
2008,05,22,10,34,11.40
2008,05,22,10,35,11.40
2008,05,22,10,36,11.40
2008,05,22,10,37,11.40
2008,05,22,10,38,11.40
2008,05,22,10,39,11.50
2008,05,22,10,40,11.50
2008,05,22,10,41,11.50
2008,05,22,10,42,11.60
2008,05,22,10,43,11.60
2008,05,22,10,44,11.70
2008,05,22,10,45,11.70
2008,05,22,10,46,11.60
2008,05,22,10,47,11.60
2008,05,22,10,48,11.50
2008,05,22,10,49,11.40
2008,05,22,10,50,11.40
2008,05,22,10,51,11.50
2008,05,22,10,52,11.50
2008,05,22,10,53,11.50
2008,05,22,10,54,11.60
2008,05,22,10,55,11.70
2008,05,22,10,56,11.70
2008,05,22,10,57,11.70
2008,05,22,10,58,11.70
2008,05,22,10,59,11.70
2008,05,22,11,00,11.70
2008,05,22,11,01,11.70
2008,05,22,11,02,11.70
2008,05,22,11,03,11.70
2008,05,22,11,04,11.70
2008,05,22,11,05,11.70
2008,05,22,11,06,11.60
2008,05,22,11,07,11.60
2008,05,22,11,08,11.60
2008,05,22,11,09,11.60
2008,05,22,11,10,11.60
2008,05,22,11,11,11.60
2008,05,22,11,12,11.50
2008,05,22,11,13,11.50
2008,05,22,11,14,11.50
2008,05,22,11,15,11.50
2008,05,22,11,16,11.50
2008,05,22,11,17,11.60
2008,05,22,11,18,11.60
2008,05,22,11,19,11.60
2008,05,22,11,20,11.70
2008,05,22,11,21,11.80
2008,05,22,11,22,11.80
2008,05,22,11,23,11.80
2008,05,22,11,24,11.80
2008,05,22,11,25,11.80
2008,05,22,11,26,11.80
2008,05,22,11,27,11.80
2008,05,22,11,28,11.80
2008,05,22,11,29,11.80
2008,05,22,11,30,11.80
2008,05,22,11,31,11.80
2008,05,22,11,32,11.80
2008,05,22,11,33,11.70
2008,05,22,11,34,11.60
2008,05,22,11,35,11.60
2008,05,22,11,36,11.60
2008,05,22,11,37,11.60
2008,05,22,11,38,11.60
2008,05,22,11,39,11.60
2008,05,22,11,40,11.50
2008,05,22,11,41,11.50
2008,05,22,11,42,11.40
2008,05,22,11,43,11.30
2008,05,22,11,44,11.20
2008,05,22,11,45,11.20
2008,05,22,11,46,11.10
2008,05,22,11,47,11.00
2008,05,22,11,48,11.00
2008,05,22,11,49,11.00
2008,05,22,11,50,11.00
2008,05,22,11,51,10.90
2008,05,22,11,52,10.90
2008,05,22,11,53,11.00
2008,05,22,11,54,11.00
2008,05,22,11,55,10.90
2008,05,22,11,56,10.90
2008,05,22,11,57,10.80
2008,05,22,11,58,10.80
2008,05,22,11,59,10.80
2008,05,22,12,00,10.80
2008,05,22,12,01,10.80
2008,05,22,12,02,10.80
2008,05,22,12,03,10.80
2008,05,22,12,04,10.80
2008,05,22,12,05,10.90
2008,05,22,12,06,10.90
2008,05,22,12,07,10.90
2008,05,22,12,08,10.90
2008,05,22,12,09,10.90
2008,05,22,12,10,10.90
2008,05,22,12,11,10.90
2008,05,22,12,12,10.90
2008,05,22,12,13,10.90
2008,05,22,12,14,10.90
2008,05,22,12,15,10.90
2008,05,22,12,16,10.90
2008,05,22,12,17,11.00
2008,05,22,12,18,11.00
2008,05,22,12,19,11.00
2008,05,22,12,20,11.00
2008,05,22,12,21,11.10
2008,05,22,12,22,11.10
2008,05,22,12,23,11.10
2008,05,22,12,24,11.10
2008,05,22,12,25,11.10
2008,05,22,12,26,11.10
2008,05,22,12,27,11.10
2008,05,22,12,28,11.10
2008,05,22,12,29,11.10
2008,05,22,12,30,11.20
2008,05,22,12,31,11.20
2008,05,22,12,32,11.20
2008,05,22,12,33,11.20
2008,05,22,12,34,11.20
2008,05,22,12,35,11.20
2008,05,22,12,36,11.20
2008,05,22,12,37,11.20
2008,05,22,12,38,11.20
2008,05,22,12,39,11.20
2008,05,22,12,40,11.20
2008,05,22,12,41,11.20
2008,05,22,12,42,11.20
2008,05,22,12,43,11.20
2008,05,22,12,44,11.20
2008,05,22,12,45,11.20
2008,05,22,12,46,11.10
2008,05,22,12,47,11.10
2008,05,22,12,48,11.10
2008,05,22,12,49,11.10
2008,05,22,12,50,11.10
2008,05,22,12,51,11.10
2008,05,22,12,52,11.10
2008,05,22,12,53,11.10
2008,05,22,12,54,11.20
2008,05,22,12,55,11.30
2008,05,22,12,56,11.30
2008,05,22,12,57,11.30
2008,05,22,12,58,11.30
2008,05,22,12,59,11.30
2008,05,22,13,00,11.40
2008,05,22,13,01,11.40
2008,05,22,13,02,11.40
2008,05,22,13,03,11.40
2008,05,22,13,04,11.30
2008,05,22,13,05,11.30
2008,05,22,13,06,11.30
2008,05,22,13,07,11.30
2008,05,22,13,08,11.30
2008,05,22,13,09,11.40
2008,05,22,13,10,11.40
2008,05,22,13,11,11.40
2008,05,22,13,12,11.40
2008,05,22,13,13,11.40
2008,05,22,13,14,11.40
2008,05,22,13,15,11.40
2008,05,22,13,16,11.50
2008,05,22,13,17,11.40
2008,05,22,13,18,11.40
2008,05,22,13,19,11.40
2008,05,22,13,20,11.40
2008,05,22,13,21,11.40
2008,05,22,13,22,11.40
2008,05,22,13,23,11.50
2008,05,22,13,24,11.50
2008,05,22,13,25,11.50
2008,05,22,13,26,11.60
2008,05,22,13,27,11.60
2008,05,22,13,28,11.70
2008,05,22,13,29,11.70
2008,05,22,13,30,11.70
2008,05,22,13,31,11.70
2008,05,22,13,32,11.70
2008,05,22,13,33,11.70
2008,05,22,13,34,11.60
2008,05,22,13,35,11.60
2008,05,22,13,36,11.60
2008,05,22,13,37,11.50
2008,05,22,13,38,11.40
2008,05,22,13,39,11.40
2008,05,22,13,40,11.50
2008,05,22,13,41,11.50
2008,05,22,13,42,11.50
2008,05,22,13,43,11.50
2008,05,22,13,44,11.50
2008,05,22,13,45,11.50
2008,05,22,13,46,11.50
2008,05,22,13,47,11.60
2008,05,22,13,48,11.60
2008,05,22,13,49,11.60
2008,05,22,13,50,11.60
2008,05,22,13,51,11.70
2008,05,22,13,52,11.70
2008,05,22,13,53,11.80
2008,05,22,13,54,11.90
2008,05,22,13,55,11.90
2008,05,22,13,56,12.00
2008,05,22,13,57,12.00
2008,05,22,13,58,12.00
2008,05,22,13,59,12.00
2008,05,22,14,00,12.00
2008,05,22,14,01,11.90
2008,05,22,14,02,12.00
2008,05,22,14,03,12.00
2008,05,22,14,04,12.00
2008,05,22,14,05,12.00
2008,05,22,14,06,12.10
2008,05,22,14,07,12.20
2008,05,22,14,08,12.30
2008,05,22,14,09,12.40
2008,05,22,14,10,12.40
2008,05,22,14,11,12.40
2008,05,22,14,12,12.40
2008,05,22,14,13,12.50
2008,05,22,14,14,12.50
2008,05,22,14,15,12.50
2008,05,22,14,16,12.70
2008,05,22,14,17,12.80
2008,05,22,14,18,12.90
2008,05,22,14,19,13.00
2008,05,22,14,20,12.90
2008,05,22,14,21,12.90
2008,05,22,14,22,12.80
2008,05,22,14,23,12.80
2008,05,22,14,24,12.70
2008,05,22,14,25,12.60
2008,05,22,14,26,12.60
2008,05,22,14,27,12.60
2008,05,22,14,28,12.50
2008,05,22,14,29,12.50
2008,05,22,14,30,12.40
2008,05,22,14,31,12.40
2008,05,22,14,32,12.40
2008,05,22,14,33,12.40
2008,05,22,14,34,12.40
2008,05,22,14,35,12.40
2008,05,22,14,36,12.40
2008,05,22,14,37,12.40
2008,05,22,14,38,12.40
2008,05,22,14,39,12.40
2008,05,22,14,40,12.40
2008,05,22,14,41,12.40
2008,05,22,14,42,12.30
2008,05,22,14,43,12.30
2008,05,22,14,44,12.20
2008,05,22,14,45,12.20
2008,05,22,14,46,12.20
2008,05,22,14,47,12.20
2008,05,22,14,48,12.20
2008,05,22,14,49,12.20
2008,05,22,14,50,12.20
2008,05,22,14,51,12.20
2008,05,22,14,52,12.20
2008,05,22,14,53,12.20
2008,05,22,14,54,12.20
2008,05,22,14,55,12.20
2008,05,22,14,56,12.20
2008,05,22,14,57,12.20
2008,05,22,14,58,12.20
2008,05,22,14,59,12.20
2008,05,22,15,00,12.20
2008,05,22,15,01,12.20
2008,05,22,15,02,12.20
2008,05,22,15,03,12.10
2008,05,22,15,04,12.10
2008,05,22,15,05,12.10
2008,05,22,15,06,12.10
2008,05,22,15,07,12.10
2008,05,22,15,08,12.10
2008,05,22,15,09,12.10
2008,05,22,15,10,12.10
2008,05,22,15,11,12.10
2008,05,22,15,12,12.10
2008,05,22,15,13,12.20
2008,05,22,15,14,12.20
2008,05,22,15,15,12.30
2008,05,22,15,16,12.40
2008,05,22,15,17,12.40
2008,05,22,15,18,12.30
2008,05,22,15,19,12.30
2008,05,22,15,20,12.40
2008,05,22,15,21,12.40
2008,05,22,15,22,12.50
2008,05,22,15,23,12.60
2008,05,22,15,24,12.60
2008,05,22,15,25,12.60
2008,05,22,15,26,12.60
2008,05,22,15,27,12.60
2008,05,22,15,28,12.60
2008,05,22,15,29,12.60
2008,05,22,15,30,12.60
2008,05,22,15,31,12.60
2008,05,22,15,32,12.70
2008,05,22,15,33,12.80
2008,05,22,15,34,12.90
2008,05,22,15,35,12.90
2008,05,22,15,36,13.00
2008,05,22,15,37,13.00
2008,05,22,15,38,12.90
2008,05,22,15,39,12.80
2008,05,22,15,40,12.80
2008,05,22,15,41,12.70
2008,05,22,15,42,12.70
2008,05,22,15,43,12.70
2008,05,22,15,44,12.80
2008,05,22,15,45,12.80
2008,05,22,15,46,12.80
2008,05,22,15,47,12.80
2008,05,22,15,48,12.80
2008,05,22,15,49,12.80
2008,05,22,15,50,12.80
2008,05,22,15,51,12.80
2008,05,22,15,52,12.80
2008,05,22,15,53,12.80
2008,05,22,15,54,12.80
2008,05,22,15,55,12.80
2008,05,22,15,56,12.80
2008,05,22,15,57,12.80
2008,05,22,15,58,12.80
2008,05,22,15,59,12.80
2008,05,22,16,00,12.80
2008,05,22,16,01,12.90
2008,05,22,16,02,12.90
2008,05,22,16,03,12.90
2008,05,22,16,04,12.90
2008,05,22,16,05,12.90
2008,05,22,16,06,12.90
2008,05,22,16,07,13.00
2008,05,22,16,08,13.00
2008,05,22,16,09,13.00
2008,05,22,16,10,12.90
2008,05,22,16,11,12.90
2008,05,22,16,12,12.90
2008,05,22,16,13,12.90
2008,05,22,16,14,12.90
2008,05,22,16,15,12.90
2008,05,22,16,16,12.90
2008,05,22,16,17,13.00
2008,05,22,16,18,13.00
2008,05,22,16,19,13.10
2008,05,22,16,20,13.10
2008,05,22,16,21,13.10
2008,05,22,16,22,13.20
2008,05,22,16,23,13.20
2008,05,22,16,24,13.30
2008,05,22,16,25,13.40
2008,05,22,16,26,13.50
2008,05,22,16,27,13.70
2008,05,22,16,28,13.90
2008,05,22,16,29,14.10
2008,05,22,16,30,14.20
2008,05,22,16,31,14.40
2008,05,22,16,32,14.50
2008,05,22,16,33,14.60
2008,05,22,16,34,14.80
2008,05,22,16,35,15.00
2008,05,22,16,36,15.00
2008,05,22,16,37,15.00
2008,05,22,16,38,15.00
2008,05,22,16,39,15.00
2008,05,22,16,40,15.00
2008,05,22,16,41,15.00
2008,05,22,16,42,15.00
2008,05,22,16,43,15.00
2008,05,22,16,44,15.00
2008,05,22,16,45,15.20
2008,05,22,16,46,15.30
2008,05,22,16,47,15.30
2008,05,22,16,48,15.40
2008,05,22,16,49,15.50
2008,05,22,16,50,15.60
2008,05,22,16,51,15.70
2008,05,22,16,52,15.60
2008,05,22,16,53,15.60
2008,05,22,16,54,15.70
2008,05,22,16,55,15.60
2008,05,22,16,56,15.60
2008,05,22,16,57,15.60
2008,05,22,16,58,15.50
2008,05,22,16,59,15.40
2008,05,22,17,00,15.30
2008,05,22,17,01,15.20
2008,05,22,17,02,15.10
2008,05,22,17,03,15.00
2008,05,22,17,04,15.00
2008,05,22,17,05,14.90
2008,05,22,17,06,14.80
2008,05,22,17,07,14.80
2008,05,22,17,08,14.80
2008,05,22,17,09,14.80
2008,05,22,17,10,14.90
2008,05,22,17,11,15.00
2008,05,22,17,12,15.00
2008,05,22,17,13,15.00
2008,05,22,17,14,15.10
2008,05,22,17,15,15.20
2008,05,22,17,16,15.20
2008,05,22,17,17,15.30
2008,05,22,17,18,15.40
2008,05,22,17,19,15.40
2008,05,22,17,20,15.50
2008,05,22,17,21,15.50
2008,05,22,17,22,15.50
2008,05,22,17,23,15.60
2008,05,22,17,24,15.60
2008,05,22,17,25,15.40
2008,05,22,17,26,15.30
2008,05,22,17,27,15.20
2008,05,22,17,28,15.00
2008,05,22,17,29,15.00
2008,05,22,17,30,15.00
2008,05,22,17,31,14.90
2008,05,22,17,32,14.80
2008,05,22,17,33,14.70
2008,05,22,17,34,14.60
2008,05,22,17,35,14.50
2008,05,22,17,36,14.40
2008,05,22,17,37,14.40
2008,05,22,17,38,14.40
2008,05,22,17,39,14.50
2008,05,22,17,40,14.50
2008,05,22,17,41,14.50
2008,05,22,17,42,14.60